Location: Newark
(45.4422°N, 16.2769°E)
Time: 11:07:34
(UTC+00:00)

Tiros 1 despin weight - Pass Details

Date: 22 December 2019
Orbit: 594 x 642 km, 48.2° (Epoch: 25 January)

Event Time Altitude Azimuth Distance (km) Brightness Sun altitude
Rises 01:22:31 0° 263° (W) 2,919 - -52.7°
Reaches altitude 10° 01:24:52 10° 266° (W) 2,005 - -52.3°
Maximum altitude 01:29:28 68° 350° (N) 674 - -51.5°
Drops below altitude 10° 01:34:00 10° 73° (ENE) 1,977 - -50.8°
Sets 01:36:18 0° 76° (ENE) 2,874 - -50.4°
